Location: Biharia
(46.4333°N, 22.8000°E)
Time: 20:52:47
(UTC+00:00)

Cosmos 1844 Rocket - Pass Details

Date: 16 October 2021
Orbit: 826 x 843 km, 71.0° (Epoch: 29 November)

Event Time Altitude Azimuth Distance (km) Brightness Sun altitude
Rises 17:55:30 0° 338° (NNW) 3,378 6.3 -24.0°
Reaches altitude 10° 17:58:10 10° 347° (NNW) 2,440 5.4 -24.4°
Enters shadow 18:02:16 32° 31° (NNE) 1,384 3.6 -25.1°
